Location: Napa Soda Springs
(38.3907°N, 122.2794°W)
Time: 21:44:02
(UTC+00:00)

Cosmos 2058 Rocket - Pass Details

Date: 29 October 2020
Orbit: 610 x 639 km, 82.5° (Epoch: 24 November)

Event Time Altitude Azimuth Distance (km) Brightness Sun altitude
Rises 13:51:12 0° 341° (NNW) 2,940 6.2 -8.8°
Reaches altitude 10° 13:53:39 10° 331° (NNW) 2,023 5.3 -8.3°
Maximum altitude 13:57:33 30° 270° (W) 1,125 3.9 -7.6°
Drops below altitude 10° 14:01:26 10° 209° (SSW) 1,994 5.5 -6.8°
Sets 14:03:50 0° 199° (SSW) 2,891 6.4 -6.4°
